Temp_Advection
nan nan nan nan nan nan nan nan nan nan nan nan nan nan nan nan nan nan nan nan nan nan nan nan nan nan nan nan nan nan nan nan nan nan nan nan nan nan nan nan nan nan nan nan nan nan nan nan nan nan nan nan nan nan
nan 0 0 -1 -1 -1 -1 -1 -1 -1 -1 -1 -1 0 0 1 0 0 0 0 1 1 0 -0 0 0 0 0 0 0 0 0 -0 -0 0 0 0 -0 0 0 0 -0 -0 -0 0 -0 0 0 -0 -0 -0 -0 -0 nan
nan -0 0 0 -0 -1 -1 -1 -1 -1 -1 -0 -0 -0 0 0 1 1 -0 0 1 0 0 0 0 0 0 0 0 0 0 0 0 0 -0 -0 0 -0 0 -0 0 0 -0 0 -0 0 -0 -0 -0 -0 -0 -0 -0 nan
nan -0 -0 0 0 -0 -1 -1 -1 -1 -1 -0 -0 0 0 0 0 0 0 0 0 0 0 -0 0 0 0 0 0 0 0 0 0 0 0 0 0 -0 0 -0 0 0 0 0 -0 -0 -0 -0 -0 -0 -0 -0 -0 nan
nan -0 -0 -0 0 0 -1 -1 -1 -1 -0 -0 -0 0 0 0 0 0 1 0 0 0 -0 -0 0 0 -0 0 0 1 0 0 0 -0 -0 -0 0 -0 -0 -0 -0 -0 -0 -0 -0 0 0 -0 -0 0 0 0 0 nan
nan 0 -0 -0 -0 0 0 -1 -0 -1 -1 -0 -0 0 0 0 0 0 0 0 0 0 0 -0 -0 -0 0 0 0 0 0 0 0 0 -0 -0 0 -0 0 -0 -0 -0 0 0 0 -0 0 0 0 0 0 -0 0 nan
nan 0 0 -0 -0 -0 0 -0 -0 -0 -1 -0 -0 0 0 0 0 0 -0 0 0 -0 -0 0 -0 -0 0 0 0 0 0 0 0 0 0 0 0 0 -0 -0 -1 0 0 0 0 0 -0 0 0 0 0 -0 -0 nan
nan -0 0 0 -0 -0 0 0 -0 -0 -0 -0 -0 0 1 0 0 0 0 0 0 0 -0 -0 0 0 0 0 0 0 0 0 0 -0 0 0 0 0 -0 -2 -0 -0 0 0 0 0 0 0 -0 -0 0 0 -0 nan
nan -0 0 -0 0 -0 -0 0 -0 -0 -1 -0 0 0 0 0 0 0 0 0 0 -0 -0 -0 -0 0 0 0 0 0 0 -0 -0 0 0 0 0 -0 -1 -0 -0 0 0 0 0 0 0 0 -0 -0 0 0 -0 nan
nan -0 0 -0 -0 -0 -0 -0 -0 -0 -0 -0 0 0 -0 0 0 0 0 0 0 -0 -0 0 -0 0 0 0 -0 -0 -0 -0 0 0 0 0 -0 -2 -0 -0 0 0 0 0 0 0 -0 -0 0 0 0 0 -0 nan
nan -0 0 -0 -0 -0 -0 0 -0 -0 -0 -0 -0 -0 0 0 0 -0 -0 0 0 -0 0 0 -0 -0 0 -0 0 -0 0 -0 0 0 0 0 -0 -0 -0 0 0 0 0 0 0 0 0 0 0 0 -0 -0 0 nan
nan -0 0 -0 -0 -0 0 -0 0 -0 0 0 0 -0 0 -0 0 -0 -0 -0 0 -0 0 0 0 -0 0 0 -0 -0 -0 -0 -0 0 -0 -0 -1 -0 0 -0 -0 0 0 0 0 0 0 0 0 -0 -0 0 0 nan
nan -0 -0 -0 -0 -0 0 0 0 0 0 -0 -0 -0 -0 -0 0 -0 -0 -0 -0 0 0 -0 0 0 -0 -0 -0 -0 -0 -0 0 -0 -0 -1 -0 0 -0 0 0 0 0 0 0 0 0 -0 0 0 0 0 0 nan
nan 0 -0 0 -0 0 0 0 0 0 0 0 -0 -0 0 -0 -0 -0 0 0 0 0 -0 0 -0 0 -0 -0 -0 -0 -0 -0 -0 -0 -0 -1 -1 -0 0 0 0 0 -0 -0 0 0 0 0 0 0 0 0 0 nan
nan 0 0 0 -0 -0 0 0 0 0 0 0 0 -0 0 0 -0 -0 -0 0 0 0 -0 -0 0 -0 -0 -0 -0 -0 -0 -0 -0 -0 -1 -0 0 0 0 0 0 -0 0 -0 -0 -0 -0 0 0 -0 -0 0 0 nan
nan 0 0 -0 0 0 0 0 0 0 0 0 -0 -0 -0 0 -0 0 0 0 0 0 0 -0 -0 -0 0 -0 -0 -0 -0 -0 -0 -0 -0 -0 -0 -0 0 0 0 0 0 0 -0 -0 -0 0 0 -0 -0 -0 -0 nan
nan -0 0 0 0 0 0 -0 -0 -0 -0 -0 -0 -0 0 0 0 -0 0 -0 0 -0 0 0 -0 -0 -0 -0 -0 -0 -1 -1 1 0 -0 -0 -0 -0 -0 0 0 0 0 -0 -0 0 0 0 -0 -0 -0 -0 -0 nan
nan 0 0 0 -0 -0 0 0 -0 -0 0 0 -0 0 0 -0 -0 -0 -0 0 0 -0 -0 -0 -0 -0 -0 -1 -0 -1 -1 -0 -0 -0 -0 -0 -0 -0 0 0 0 0 0 -0 0 -0 -0 0 0 -0 -0 -0 -0 nan
nan 0 0 0 0 -0 -0 0 0 0 0 0 -0 -0 0 0 0 -0 0 0 0 -0 0 -0 -0 -0 -1 -1 -0 -0 -0 -0 -0 -0 -0 -0 -0 -0 -0 0 -0 -0 0 -0 -0 0 -0 -0 -0 -0 -0 -0 -0 nan
nan 0 0 0 0 0 -0 -0 0 0 0 0 0 -0 0 0 0 0 0 0 0 0 0 0 -1 -1 -0 -0 0 -0 -0 -0 -0 -0 -0 -0 -0 -0 -0 -0 -0 -0 -0 -0 -0 -0 -0 -0 -0 -0 -0 -0 -0 nan
nan 0 0 0 0 0 -0 -0 0 0 0 0 -0 0 0 0 0 0 0 0 0 0 -0 -1 -1 -0 0 0 -0 -0 -0 -0 0 0 -0 -0 -0 -0 -0 -0 -0 0 0 -0 -0 -0 -0 -0 -0 -0 -0 -0 -0 nan
nan -0 0 0 0 0 0 0 0 0 -0 0 -0 0 0 0 0 0 0 -0 -0 -0 -0 -0 -0 -0 0 -0 -0 0 -0 -0 -0 0 0 0 -0 -0 -0 -0 -0 -0 -0 0 -0 -0 -0 -0 -0 -0 -0 -0 -0 nan
nan -0 -0 -0 -0 -0 -0 0 -0 -0 -0 -0 -0 -0 0 0 0 0 0 -0 -0 -0 -0 -0 -0 0 0 -0 -0 -0 -0 -0 -0 -0 -0 0 -0 0 0 -0 0 -0 -0 -0 -0 -0 -0 -0 -0 -0 -0 -0 -0 nan
nan -0 -0 -0 -0 -0 0 -0 -0 -0 0 -0 -0 -0 -0 -0 0 0 -0 -0 -0 -0 -0 -0 -0 -0 -0 -0 -0 -0 -0 -0 -0 -0 -0 -0 -0 0 0 0 0 0 -0 -0 -0 -0 -0 -0 -0 -0 0 -0 -0 nan
nan -0 -0 -0 0 -0 -0 -0 -0 -0 -0 -0 -0 -0 -0 -0 -0 -0 -0 -0 -0 -0 0 0 0 -0 -0 -0 -0 -0 -0 -0 -0 -0 -0 -0 -1 -1 -0 -0 -0 -0 -0 -0 -0 -0 -0 -0 0 0 0 0 0 nan
nan -0 -0 0 -0 -0 -0 -0 -0 0 -0 -0 0 -0 -0 -0 0 -0 -0 -0 0 1 0 -0 -0 -0 -0 -0 -0 -0 -0 -0 -0 -0 -0 -0 0 -0 -1 -1 -1 -0 0 0 0 0 -0 -0 0 0 0 0 0 nan
nan -0 0 -0 -0 -0 -0 -0 -0 -0 -0 -0 -0 0 0 0 -0 0 0 0 0 0 -0 -0 -0 -0 -0 -0 -0 -0 -0 -0 -0 -0 0 0 -0 0 0 -0 -0 -0 -0 0 0 0 0 0 0 0 0 0 0 nan
nan -0 -0 0 0 0 -0 -0 -0 -0 -0 -0 -1 -0 -0 -0 -0 0 0 0 0 -0 -0 -0 -0 -0 -0 -0 -0 -0 -0 -0 -0 -0 -0 -0 -0 0 0 0 0 0 0 0 0 0 0 0 0 0 0 0 0 nan
nan -0 -0 -0 -0 -0 0 -0 -0 -0 -0 -0 -0 -0 0 -0 0 0 0 0 -0 -0 -0 -0 -0 -0 -0 -0 -0 -0 -0 -1 -1 -1 -1 -1 -1 -0 0 0 0 -0 0 0 0 0 0 0 0 0 0 0 0 nan
nan 0 -0 -0 -0 -0 -0 -0 -0 0 0 -0 -0 -0 -0 -0 0 0 -0 -0 -0 -0 -0 -0 -0 -0 0 -0 -0 -0 -0 -1 -1 -1 -1 -1 -1 -0 -0 -0 0 0 0 -0 -0 0 0 -0 0 0 0 -0 -0 nan
nan 0 0 0 -0 -0 -0 -0 -0 0 0 0 0 0 -0 -0 -0 -0 -0 -0 -0 -0 -0 -0 -0 -0 -0 -1 -1 -1 -1 -0 0 0 0 0 -0 -0 -0 0 0 0 0 0 -0 -0 0 0 0 0 0 0 -0 nan
nan 0 0 -0 -0 0 -0 -0 0 0 0 0 0 0 0 0 -0 -0 -0 -0 -0 -0 0 -0 -0 -0 -0 -0 -0 -1 -1 -0 -0 -0 0 0 0 -0 1 1 1 0 0 0 0 -0 -0 -0 0 0 0 -0 0 nan
nan nan nan nan nan nan nan nan nan nan nan nan nan nan nan nan nan nan nan nan nan nan nan nan nan nan nan nan nan nan nan nan nan nan nan nan nan nan nan nan nan nan nan nan nan nan nan nan nan nan nan nan nan nan
Wind_Speed
19 20 20 20 19 24 20 20 23 25 24 23 18 20 16 19 20 15 15 12 18 7 4 4 6 3 2 3 4 9 6 2 2 3 3 2 0 2 0 2 6 6 7 4 4 3 7 8 2 0 2 5 6 10
20 20 21 19 20 20 23 21 24 21 18 16 15 16 20 18 24 12 10 11 19 14 5 6 8 7 6 7 6 11 3 3 6 3 2 2 2 1 2 3 2 2 3 3 6 3 10 6 4 2 5 6 8 13
21 20 19 19 19 20 20 22 23 16 12 12 8 11 15 17 20 20 14 14 14 9 5 6 3 6 10 8 9 6 3 6 2 3 3 1 2 3 3 4 3 2 3 1 4 4 7 6 4 4 5 8 12 15
21 20 19 18 18 18 19 19 21 22 16 8 12 11 13 12 13 16 16 14 14 5 2 2 1 5 5 7 9 9 6 11 8 7 3 2 2 1 0 0 1 2 4 3 3 7 8 2 4 8 11 15 18 20
21 20 19 18 17 17 16 18 17 16 16 11 6 16 14 11 12 14 14 14 16 5 3 5 4 4 3 4 7 10 7 8 5 4 2 2 3 2 2 3 2 6 5 4 4 4 3 3 6 9 14 17 20 23
21 20 19 18 17 16 15 16 16 17 16 14 9 13 13 8 6 8 4 6 9 10 4 2 3 5 3 3 4 8 8 7 5 5 3 3 3 3 3 3 3 9 11 9 2 5 3 7 13 13 13 16 23 26
20 19 18 17 17 16 15 15 16 16 15 17 16 13 11 10 8 3 3 4 12 9 4 4 4 3 9 8 7 7 8 5 4 3 2 4 2 4 1 3 5 4 5 6 6 7 9 12 11 17 19 25 27 30
19 18 17 16 15 15 14 14 13 14 14 12 14 11 19 14 8 4 9 12 14 3 3 3 2 3 5 2 3 5 3 3 3 3 3 1 3 1 2 13 10 6 5 7 8 8 11 13 15 21 23 27 29 31
18 17 17 15 14 13 13 12 13 12 12 10 9 10 20 15 6 8 12 11 7 2 2 1 3 3 5 3 4 3 2 2 1 1 1 2 2 3 7 7 6 6 5 3 5 8 11 13 19 29 31 30 29 32
17 16 16 15 14 13 12 11 11 8 7 8 10 3 2 7 15 14 5 3 3 2 3 2 3 3 4 3 2 3 1 2 2 1 2 1 3 16 20 14 10 9 8 9 9 9 11 21 28 31 31 29 29 32
16 16 16 15 14 14 12 9 8 6 3 5 1 3 12 21 8 4 3 2 2 2 2 3 4 4 3 2 2 2 1 1 2 1 1 2 3 4 5 3 3 9 10 9 9 12 22 26 29 31 32 32 33 33
15 15 15 15 14 12 9 9 6 3 1 2 6 9 9 2 3 3 2 2 1 3 5 4 4 6 4 4 4 1 2 2 1 3 2 3 4 4 5 3 3 3 4 6 12 25 28 28 28 27 31 35 34 33
14 13 12 12 11 11 8 7 4 5 2 6 3 3 3 3 1 3 3 3 2 7 6 8 3 4 4 3 5 2 3 2 2 2 3 4 1 1 5 3 1 4 8 16 25 27 27 26 25 28 33 36 35 35
12 12 11 8 8 8 6 7 6 5 3 2 3 2 2 2 2 2 0 2 4 9 18 15 6 3 3 2 2 4 1 2 1 1 5 3 6 5 5 2 6 8 15 25 27 27 26 25 29 31 34 35 33 32
10 9 8 8 7 7 9 10 10 10 1 1 2 3 3 3 3 3 3 4 7 18 17 10 5 4 2 3 2 4 4 2 4 4 3 1 5 5 4 6 13 18 25 26 27 27 27 27 30 34 34 32 31 30
7 5 5 8 5 4 4 10 17 9 1 1 1 1 3 2 2 3 5 6 17 17 7 3 3 3 1 4 3 5 5 5 4 3 4 4 5 10 12 20 23 23 26 26 25 25 27 29 32 33 32 31 28 26
7 8 6 8 7 6 6 4 10 2 1 2 2 2 1 5 4 3 7 8 20 12 2 3 4 5 3 3 1 3 5 3 4 3 5 9 12 18 22 24 24 25 25 26 28 29 29 29 29 28 29 26 29 25
12 7 8 11 9 9 8 3 3 3 1 3 2 1 3 3 7 6 8 16 15 6 5 3 6 2 4 6 3 4 7 6 6 7 12 17 21 23 22 23 24 25 27 29 28 29 28 25 26 27 27 28 30 32
9 9 9 8 9 5 3 3 2 3 4 2 4 6 2 2 5 3 8 17 8 12 4 4 3 3 3 5 1 3 1 4 12 17 19 21 20 20 20 22 24 28 28 28 29 26 24 22 26 25 26 26 27 24
8 8 9 10 11 3 3 2 3 1 1 2 3 1 2 1 2 4 8 16 10 6 3 2 3 4 3 3 2 2 7 13 15 21 24 20 19 19 22 25 28 27 28 28 25 22 23 25 24 24 25 21 21 24
12 10 9 11 8 2 2 2 2 2 2 1 2 2 1 2 3 3 7 11 6 4 5 8 6 3 3 4 7 12 12 14 16 17 22 25 21 23 27 25 26 25 24 24 24 26 22 21 25 23 21 22 24 20
10 11 9 11 2 5 2 1 1 1 0 0 1 1 1 2 3 5 5 7 5 5 6 4 5 8 9 12 13 14 16 16 12 12 14 18 23 23 24 24 22 24 24 23 22 21 21 22 20 20 22 21 20 19
11 9 4 3 2 2 1 2 1 1 1 2 0 1 1 1 1 5 3 5 4 4 5 5 8 11 13 13 13 13 7 9 12 16 18 18 19 21 20 21 22 22 23 23 21 19 19 19 21 19 19 18 17 16
5 1 1 2 2 2 2 1 1 1 1 0 1 1 1 1 1 1 2 3 4 6 4 5 5 5 5 3 4 7 11 15 15 14 16 19 20 20 21 21 22 19 20 19 18 19 22 21 18 18 16 16 14 13
1 2 1 3 2 3 3 1 3 3 1 2 2 1 1 2 1 0 2 4 11 9 6 7 9 8 6 6 9 12 13 14 17 19 18 19 22 22 22 22 20 21 19 19 21 22 22 21 19 16 15 13 13 12
3 2 3 1 1 2 3 2 1 3 1 1 1 0 1 2 2 2 1 6 8 11 11 10 12 12 11 12 11 11 14 16 17 17 19 22 21 21 23 22 25 24 21 20 21 22 22 19 17 15 13 11 10 8
3 2 3 2 2 2 3 2 2 2 2 3 2 1 2 2 2 0 2 6 7 9 10 12 13 10 8 9 10 12 15 18 17 16 19 18 17 17 16 20 23 24 22 21 20 18 18 17 16 13 12 9 8 5
2 1 1 1 1 0 1 1 2 3 2 2 5 1 5 5 2 2 3 4 6 7 9 8 8 8 11 12 14 15 15 14 13 16 15 16 19 17 18 17 19 19 18 17 16 15 15 14 13 12 10 7 4 4
3 2 1 2 1 1 2 3 2 1 1 4 2 0 1 2 4 3 4 5 6 7 6 5 6 10 11 12 14 14 14 17 22 25 25 27 29 27 22 22 24 23 22 19 13 12 11 10 10 9 6 2 1 2
2 1 1 1 1 2 1 2 0 1 3 2 1 2 3 4 4 5 5 4 5 6 7 9 11 13 13 14 15 13 16 19 22 24 26 27 28 28 28 30 32 30 24 18 14 10 7 6 6 7 5 2 2 2
2 1 1 1 2 1 2 3 4 4 3 2 4 3 3 4 3 4 6 5 5 5 5 6 10 13 13 15 16 14 19 21 22 22 22 23 25 28 30 30 29 23 18 15 12 10 8 5 7 7 4 1 6 5
1 1 1 2 1 2 4 0 1 2 1 2 1 2 3 3 2 3 7 5 3 4 8 10 12 12 13 15 12 16 20 22 23 23 24 24 26 26 27 27 24 19 16 12 10 9 7 5 6 6 4 2 2 5
2 2 2 3 2 1 2 2 1 2 2 2 2 2 2 2 3 3 5 9 6 7 10 11 12 11 12 11 10 15 18 20 21 22 21 21 22 23 25 26 24 19 16 12 10 8 7 4 4 5 4 3 2 5
Wind_Direction
320 320 311 316 316 292 306 319 307 295 298 285 263 248 243 251 259 263 251 263 222 223 289 230 222 206 166 180 150 141 114 173 132 186 165 232 294 201 141 147 166 159 173 186 206 236 257 140 133 305 97 21 341 330
313 314 323 312 319 321 296 309 323 295 301 300 290 234 243 244 231 263 252 260 228 218 213 244 236 217 208 182 144 161 91 108 160 129 151 199 196 61 212 226 58 218 197 191 180 190 142 138 100 64 350 2 348 330
308 309 314 324 313 316 320 290 337 303 303 297 255 237 237 237 234 230 248 251 224 212 248 233 230 205 209 199 181 156 160 155 160 115 109 111 204 136 170 234 179 191 107 172 33 104 89 67 60 52 10 337 320 313
301 304 308 311 323 318 318 318 302 328 317 255 280 251 219 212 215 214 210 220 214 173 192 104 113 212 197 190 191 194 200 191 184 154 118 159 182 66 268 251 97 132 127 197 264 322 314 130 38 348 332 323 315 310
298 298 301 306 310 319 317 321 310 318 331 304 277 206 224 236 245 246 226 219 205 175 110 127 120 64 78 164 187 200 190 169 148 131 111 201 97 107 73 41 257 182 190 166 214 83 117 313 320 312 307 305 303 302
294 294 294 298 303 309 316 321 321 303 314 334 250 214 235 225 181 155 137 199 221 197 118 110 74 28 143 146 133 145 160 155 149 131 154 132 166 160 148 201 241 231 239 251 292 332 293 277 290 307 304 300 301 304
290 290 289 290 296 304 312 314 311 314 299 304 332 203 203 172 146 158 214 172 153 141 123 109 116 92 138 134 119 122 128 136 130 138 159 159 156 169 103 202 225 209 228 251 266 265 286 293 293 295 299 305 309 305
282 284 286 284 287 296 304 317 320 319 296 291 295 222 191 156 158 146 120 127 145 125 134 109 97 113 130 110 93 112 111 125 108 100 115 154 129 213 257 240 244 256 248 252 246 256 274 284 293 303 308 305 304 301
276 278 282 281 280 286 297 307 318 321 315 302 252 181 151 161 137 137 128 134 148 91 89 70 143 131 132 86 95 82 133 108 87 110 134 162 187 216 228 226 213 204 226 229 212 244 279 300 303 310 312 306 302 301
274 272 275 275 278 279 286 297 311 307 300 313 219 144 93 127 129 133 126 117 120 86 99 122 120 101 121 136 80 105 38 78 140 76 121 218 262 250 256 248 240 230 243 241 260 271 294 305 311 307 304 302 300 301
271 271 269 272 270 271 274 286 302 328 265 280 359 58 136 142 124 99 88 105 106 50 128 106 102 121 124 118 116 66 134 28 115 192 163 256 265 251 285 266 238 225 230 247 255 283 307 302 298 302 307 311 309 305
271 275 264 263 266 267 267 263 289 286 331 212 124 120 142 44 79 102 56 38 138 182 145 132 109 97 115 103 98 56 113 38 198 147 63 271 253 253 246 187 164 196 227 261 292 306 304 300 302 305 311 313 309 305
272 279 273 262 263 256 244 245 238 189 81 69 37 66 69 10 110 127 193 273 186 159 151 139 124 110 97 94 77 92 87 175 156 47 232 228 258 284 158 121 191 240 271 301 308 310 306 303 308 313 310 308 307 305
267 265 265 257 257 235 218 220 218 175 164 118 137 130 180 138 266 214 279 86 70 149 147 132 105 99 111 88 146 91 342 72 18 276 241 245 232 177 159 252 289 290 308 318 313 313 308 305 308 308 308 308 306 305
262 266 258 245 223 228 217 220 186 170 138 132 171 195 187 126 103 76 94 130 137 142 132 119 104 118 73 83 56 90 37 249 206 232 230 249 191 197 226 289 301 307 317 314 314 310 307 307 304 305 310 309 307 309
241 231 213 165 183 193 201 192 169 167 211 183 283 311 110 121 121 128 135 145 139 150 167 160 131 80 114 128 100 205 142 220 246 220 315 308 304 304 293 311 312 308 311 312 311 310 310 306 305 308 311 311 313 312
190 209 180 164 175 171 146 108 149 102 17 336 323 252 123 84 39 191 179 176 161 167 202 151 90 193 112 73 250 183 202 217 57 35 333 322 322 319 317 314 314 315 313 312 312 312 311 313 313 307 309 318 315 313
185 174 159 174 165 161 153 134 122 155 252 250 321 134 186 173 158 167 179 173 168 200 152 186 130 115 166 165 234 231 230 292 331 349 330 321 319 321 315 310 312 313 312 315 317 316 312 310 312 315 315 316 312 314
170 162 157 159 171 140 110 148 162 178 224 259 261 260 183 140 184 208 194 178 176 176 156 161 95 187 222 215 208 119 121 349 333 322 320 324 320 314 311 309 312 317 319 317 317 316 314 311 313 311 312 313 314 319
142 137 147 153 158 111 118 104 177 162 243 249 240 287 139 139 124 167 172 180 178 158 188 201 213 205 196 194 166 103 333 331 326 321 321 323 320 317 317 322 322 322 319 320 317 316 311 313 313 313 316 318 313 311
149 148 157 165 160 123 110 149 151 187 235 178 275 162 87 138 129 156 163 175 185 223 223 221 225 238 282 292 302 313 318 326 319 311 306 310 321 319 322 323 322 322 324 323 320 316 320 317 314 318 321 317 315 315
141 171 161 174 126 163 150 183 181 298 84 299 18 116 132 160 170 187 181 197 239 233 212 215 274 275 268 284 298 312 317 314 312 308 312 316 316 322 324 327 327 327 324 324 324 320 315 317 322 319 314 319 315 316
153 136 90 111 130 106 91 137 96 358 309 113 150 184 100 119 198 171 226 229 269 259 220 227 272 278 289 298 302 308 315 316 321 322 322 324 326 326 329 331 332 329 326 328 325 322 322 322 319 322 318 318 322 326
113 103 75 93 72 92 118 67 83 87 81 344 309 115 71 349 112 201 255 255 273 306 271 251 261 293 332 45 24 339 331 331 331 335 335 333 333 335 333 333 332 333 332 330 331 326 325 328 327 327 329 328 329 330
51 30 37 29 75 97 60 35 1 47 43 344 32 348 325 347 66 6 248 325 344 5 49 67 77 74 45 9 343 339 344 345 344 346 345 345 336 329 330 334 337 342 341 336 329 327 329 332 332 331 333 334 333 335
77 31 67 77 118 109 169 116 183 200 118 359 218 281 38 29 62 273 299 10 66 69 66 47 26 9 352 345 351 356 351 347 345 349 348 341 335 333 332 335 337 343 341 333 329 329 327 330 332 337 342 347 340 323
56 358 48 70 90 125 89 94 125 126 147 201 203 118 79 77 251 358 51 62 69 52 29 4 353 357 12 10 358 353 348 348 352 345 342 345 344 338 334 335 336 337 335 333 328 324 325 331 335 341 345 355 1 353
68 69 76 73 97 193 128 115 157 216 231 170 143 118 159 184 214 25 81 49 27 6 356 1 11 20 7 1 357 352 349 350 347 345 350 360 7 359 351 346 340 337 335 334 334 329 326 324 329 339 345 354 24 43
43 27 35 16 314 292 231 202 226 120 182 167 145 170 65 62 53 76 58 35 11 1 0 17 25 16 10 3 354 355 358 355 353 356 358 357 356 359 355 353 353 352 348 344 346 335 324 323 328 336 342 331 16 74
355 329 94 93 152 254 240 216 233 99 160 167 144 129 122 116 72 52 36 15 358 7 19 17 7 3 2 4 10 8 5 1 2 358 351 348 346 351 355 355 352 346 342 340 339 342 330 318 327 330 321 237 177 166
330 340 316 255 254 263 305 291 257 244 232 224 207 184 138 137 102 42 17 11 18 22 5 1 1 358 2 3 3 3 3 3 359 354 347 342 347 353 353 347 342 341 342 342 344 346 349 349 354 2 15 165 198 198
305 260 306 314 304 313 327 8 158 156 161 170 125 152 135 137 103 64 24 21 14 7 12 6 2 8 6 0 4 3 359 354 352 349 350 351 351 352 349 349 350 350 350 351 350 350 352 352 1 8 13 40 175 197
290 271 257 285 290 306 356 354 98 114 98 95 80 90 97 99 93 38 14 13 20 14 6 6 5 2 0 1 3 358 358 355 355 353 352 355 354 354 353 354 357 356 355 356 355 356 356 353 3 14 21 43 121 160
Height
1484 1481 1478 1475 1471 1469 1466 1464 1460 1457 1455 1451 1449 1450 1453 1458 1460 1461 1462 1463 1465 1467 1465 1464 1465 1467 1465 1466 1469 1477 1482 1484 1487 1489 1491 1490 1493 1490 1491 1487 1498 1502 1509 1514 1511 1513 1509 1500 1503 1506 1512 1510 1510 1510
1481 1478 1475 1472 1469 1466 1463 1461 1457 1453 1450 1446 1445 1445 1450 1453 1456 1456 1459 1460 1460 1463 1463 1464 1464 1465 1466 1467 1469 1473 1475 1477 1481 1485 1491 1491 1494 1496 1491 1499 1491 1502 1494 1496 1499 1499 1498 1499 1502 1505 1506 1507 1508 1507
1478 1475 1473 1470 1467 1464 1460 1459 1455 1451 1449 1447 1444 1444 1446 1448 1450 1452 1454 1455 1457 1459 1461 1461 1463 1464 1466 1467 1469 1472 1476 1477 1479 1481 1484 1488 1491 1490 1498 1498 1488 1492 1493 1497 1497 1496 1497 1500 1503 1504 1504 1505 1504 1504
1473 1472 1470 1467 1465 1462 1459 1456 1454 1450 1447 1444 1443 1443 1442 1444 1445 1447 1449 1451 1454 1457 1458 1462 1462 1463 1464 1466 1468 1471 1475 1478 1480 1482 1485 1487 1490 1487 1493 1492 1492 1493 1494 1495 1495 1493 1494 1496 1498 1499 1500 1501 1500 1499
1469 1468 1466 1464 1462 1460 1457 1455 1451 1450 1445 1442 1441 1439 1442 1442 1444 1446 1447 1450 1450 1455 1457 1461 1463 1465 1465 1465 1468 1471 1474 1477 1479 1482 1484 1487 1486 1489 1491 1493 1494 1489 1490 1495 1497 1493 1494 1496 1496 1496 1497 1497 1497 1495
1465 1464 1462 1461 1459 1457 1455 1453 1450 1448 1445 1443 1440 1440 1441 1442 1444 1445 1447 1450 1450 1453 1456 1460 1464 1465 1465 1467 1469 1473 1475 1477 1479 1481 1483 1484 1485 1488 1494 1495 1484 1484 1486 1488 1488 1489 1491 1492 1494 1494 1493 1493 1492 1490
1460 1459 1458 1457 1456 1454 1453 1451 1449 1446 1443 1443 1440 1438 1440 1441 1445 1448 1449 1448 1449 1453 1456 1462 1465 1467 1468 1469 1471 1474 1476 1478 1480 1481 1483 1485 1487 1486 1489 1494 1481 1482 1484 1486 1487 1487 1488 1489 1489 1489 1489 1487 1485 1481
1455 1455 1454 1453 1453 1452 1450 1448 1446 1443 1440 1440 1439 1439 1438 1441 1446 1448 1447 1448 1452 1455 1456 1459 1466 1469 1470 1471 1473 1474 1477 1479 1480 1482 1484 1485 1488 1487 1492 1478 1478 1481 1482 1482 1484 1485 1485 1486 1486 1484 1483 1481 1477 1473
1450 1450 1450 1450 1449 1449 1448 1447 1445 1443 1440 1438 1436 1436 1438 1440 1443 1446 1448 1451 1454 1459 1456 1459 1462 1467 1470 1472 1474 1476 1477 1480 1483 1483 1484 1486 1485 1487 1476 1476 1476 1478 1479 1480 1481 1482 1483 1483 1482 1479 1476 1472 1470 1466
1445 1445 1446 1446 1446 1446 1446 1445 1443 1442 1440 1439 1438 1436 1440 1440 1441 1448 1452 1452 1454 1457 1460 1462 1462 1466 1469 1472 1475 1478 1478 1480 1486 1486 1486 1486 1480 1474 1470 1473 1474 1475 1476 1477 1478 1479 1479 1477 1476 1472 1469 1467 1464 1459
1440 1441 1441 1442 1443 1443 1443 1443 1442 1441 1440 1440 1438 1439 1441 1440 1444 1447 1451 1453 1457 1460 1459 1460 1461 1465 1470 1472 1475 1477 1480 1482 1487 1487 1488 1485 1480 1467 1467 1469 1469 1472 1474 1475 1475 1475 1476 1473 1469 1465 1461 1458 1455 1451
1437 1437 1438 1439 1439 1440 1441 1441 1441 1441 1442 1441 1441 1442 1444 1445 1445 1448 1454 1457 1457 1458 1459 1462 1464 1465 1469 1470 1474 1480 1484 1487 1489 1485 1490 1490 1470 1466 1467 1468 1470 1471 1472 1472 1472 1471 1469 1466 1463 1459 1455 1450 1447 1443
1433 1434 1434 1435 1436 1437 1440 1440 1440 1441 1442 1442 1443 1443 1444 1448 1448 1450 1465 1460 1457 1452 1456 1460 1464 1467 1470 1472 1477 1479 1486 1491 1487 1494 1488 1475 1465 1466 1466 1467 1469 1470 1470 1469 1467 1464 1461 1458 1456 1452 1447 1443 1439 1435
1429 1430 1431 1433 1434 1435 1437 1438 1440 1441 1443 1443 1443 1447 1448 1450 1450 1449 1448 1447 1450 1452 1455 1457 1463 1467 1470 1474 1477 1486 1487 1488 1496 1497 1485 1466 1463 1464 1465 1467 1467 1467 1466 1463 1460 1457 1454 1451 1448 1445 1441 1436 1432 1427
1427 1428 1429 1431 1432 1434 1436 1437 1439 1442 1443 1443 1443 1445 1446 1445 1447 1447 1449 1452 1454 1453 1456 1462 1464 1467 1471 1477 1477 1485 1495 1495 1484 1479 1466 1462 1463 1464 1464 1464 1464 1462 1459 1456 1454 1451 1448 1445 1441 1436 1433 1428 1424 1420
1425 1427 1428 1430 1432 1434 1435 1437 1437 1442 1443 1444 1444 1444 1445 1446 1448 1448 1450 1451 1451 1456 1459 1461 1464 1471 1474 1475 1482 1486 1489 1488 1473 1465 1463 1463 1464 1464 1463 1461 1458 1456 1454 1451 1448 1445 1442 1438 1433 1428 1424 1420 1417 1414
1424 1426 1428 1431 1433 1435 1437 1439 1441 1443 1445 1445 1445 1445 1445 1446 1446 1448 1449 1451 1454 1458 1458 1459 1468 1472 1470 1479 1477 1470 1474 1464 1461 1462 1463 1463 1462 1460 1458 1455 1453 1451 1448 1445 1441 1438 1434 1430 1426 1421 1417 1414 1411 1407
1423 1426 1429 1431 1434 1436 1438 1440 1442 1444 1445 1445 1445 1445 1446 1447 1447 1449 1451 1451 1454 1455 1456 1458 1458 1467 1474 1478 1470 1458 1457 1459 1460 1460 1460 1459 1457 1454 1452 1450 1447 1445 1441 1438 1434 1430 1427 1423 1419 1415 1412 1409 1405 1402
1425 1428 1430 1433 1435 1437 1439 1442 1444 1444 1445 1445 1444 1445 1446 1446 1447 1447 1448 1451 1453 1453 1455 1456 1460 1465 1460 1455 1454 1455 1456 1457 1457 1457 1455 1453 1451 1449 1447 1445 1442 1439 1434 1431 1427 1424 1421 1418 1415 1411 1408 1404 1401 1397
1428 1430 1432 1434 1437 1439 1441 1443 1444 1444 1444 1444 1444 1444 1444 1445 1446 1447 1448 1450 1453 1453 1454 1455 1454 1451 1452 1452 1454 1455 1455 1455 1454 1450 1448 1448 1446 1444 1442 1439 1435 1432 1428 1424 1421 1419 1415 1412 1409 1406 1403 1400 1397 1393
1430 1432 1434 1437 1439 1441 1442 1442 1443 1444 1444 1444 1443 1444 1445 1445 1446 1447 1448 1450 1452 1450 1448 1448 1450 1451 1451 1452 1452 1452 1452 1451 1449 1448 1445 1442 1441 1439 1436 1433 1430 1426 1422 1419 1416 1412 1410 1408 1404 1401 1398 1395 1392 1389
1431 1434 1436 1438 1440 1441 1442 1443 1444 1444 1445 1444 1444 1444 1445 1446 1446 1448 1449 1450 1447 1444 1445 1446 1448 1449 1449 1450 1449 1448 1447 1446 1445 1445 1443 1440 1437 1434 1430 1428 1424 1420 1417 1415 1412 1409 1406 1403 1400 1397 1394 1391 1388 1385
1434 1436 1437 1438 1440 1441 1445 1444 1445 1444 1444 1445 1445 1445 1446 1446 1446 1448 1448 1446 1444 1443 1444 1445 1445 1445 1446 1446 1445 1444 1444 1443 1442 1441 1438 1435 1433 1430 1426 1423 1420 1416 1412 1410 1408 1404 1402 1400 1396 1393 1390 1387 1384 1381
1437 1437 1438 1438 1440 1443 1444 1444 1445 1445 1445 1445 1445 1445 1447 1447 1447 1447 1447 1443 1442 1441 1442 1443 1444 1444 1444 1443 1444 1443 1442 1440 1439 1437 1434 1430 1427 1424 1422 1419 1416 1413 1410 1406 1403 1401 1398 1395 1392 1389 1386 1383 1381 1378
1439 1441 1441 1441 1442 1444 1446 1446 1446 1446 1448 1448 1448 1448 1448 1448 1448 1449 1446 1443 1442 1441 1441 1441 1443 1443 1443 1443 1442 1440 1439 1437 1435 1432 1429 1427 1423 1420 1417 1415 1412 1409 1406 1403 1400 1397 1393 1390 1388 1385 1382 1380 1377 1376
1440 1441 1442 1442 1443 1444 1446 1449 1448 1449 1448 1450 1449 1449 1449 1450 1452 1450 1447 1446 1445 1444 1444 1443 1443 1442 1442 1440 1440 1438 1436 1434 1432 1429 1427 1424 1420 1417 1413 1410 1407 1405 1403 1400 1396 1392 1389 1387 1384 1381 1379 1377 1376 1374
1443 1443 1442 1443 1443 1443 1444 1445 1446 1446 1449 1451 1449 1450 1452 1457 1455 1449 1449 1448 1447 1446 1446 1445 1443 1442 1441 1440 1439 1437 1435 1432 1430 1428 1426 1422 1419 1416 1412 1409 1405 1403 1399 1395 1393 1389 1386 1383 1381 1379 1378 1376 1375 1374
1443 1443 1444 1444 1444 1444 1445 1445 1447 1448 1445 1445 1447 1452 1454 1452 1451 1449 1449 1449 1448 1447 1446 1445 1443 1442 1441 1439 1437 1435 1433 1431 1430 1427 1425 1422 1418 1414 1411 1408 1405 1400 1396 1392 1388 1385 1383 1381 1379 1378 1376 1375 1375 1374
1444 1444 1445 1444 1444 1444 1444 1445 1445 1445 1445 1445 1446 1447 1447 1448 1449 1449 1449 1448 1448 1447 1446 1445 1444 1443 1441 1439 1437 1435 1432 1429 1426 1422 1419 1416 1412 1411 1407 1404 1399 1395 1391 1387 1385 1383 1381 1379 1378 1376 1375 1375 1375 1374
1446 1445 1445 1445 1446 1446 1444 1444 1444 1445 1445 1446 1446 1447 1447 1448 1449 1449 1449 1448 1447 1446 1445 1445 1444 1442 1440 1438 1436 1434 1433 1430 1427 1423 1419 1415 1412 1408 1403 1399 1394 1391 1388 1385 1382 1381 1379 1378 1377 1375 1374 1374 1374 1374
1446 1445 1445 1445 1444 1444 1444 1444 1443 1444 1444 1444 1445 1446 1447 1448 1449 1449 1449 1448 1447 1447 1447 1445 1444 1442 1440 1438 1436 1434 1432 1430 1427 1424 1420 1416 1411 1406 1401 1398 1394 1390 1386 1383 1381 1379 1378 1376 1375 1374 1373 1373 1373 1374
1446 1446 1446 1445 1444 1444 1443 1443 1443 1443 1444 1444 1445 1446 1447 1448 1449 1450 1450 1449 1448 1447 1446 1445 1443 1441 1440 1438 1436 1435 1432 1429 1426 1422 1418 1413 1409 1405 1401 1397 1393 1388 1385 1382 1380 1379 1377 1376 1375 1374 1373 1373 1373 1374
1445 1445 1445 1445 1444 1443 1444 1444 1443 1444 1445 1445 1446 1447 1447 1448 1450 1451 1450 1449 1448 1447 1446 1445 1443 1442 1440 1438 1437 1435 1433 1430 1426 1422 1418 1414 1410 1405 1401 1396 1391 1388 1384 1382 1380 1378 1377 1376 1375 1375 1374 1373 1373 1374